COSMOS 2084

Last updated on Sun Apr 12 2026 00:02:17 GMT+0000 (Coordinated Universal Time)

1 20663U 90055A 26101.39577546 .00002060 00000+0 15490-3 0 9991 2 20663 62.7899 224.0090 0011820 202.0139 158.0455 15.05854901941242
UTC large
Height (km)
Speed (km/s)
/
Latitude / Longitude
Inclination (degrees)
Orbital Period (minutes)
Azimuth
Elevation
Range (km)
Doppler Factor

Next 0 passes for location: London (51.5072 / 0.1276)

Sorry there are no passes over London.
COSMOS 2084